Date String (YYYY-MM-DD hh:mm:ss) UTC,Instrument flags,Ambient pressure (hPa),Sample flow (lpm),Bypass flow (lpm),Sample temperature (°C),Ambient temperature (°C),ASC tube jacket temperature (°C),LED temperature (°C),Box temperature (°C),Sample RH (%),Span deviation,Mass concentration (μg/m³),Mass concentration (μg/m³),Mass concentration (μg/m³)
DateTimeUTC,F1_M11,P_M11,Q1_M11,Q2_M11,T1_M11,T2_M11,T3_M11,T4_M11,T5_M11,U1_M11,ZSPAN_M11,X0_M11,X2_M11,X1_M11
2022-12-07 00:00:00,,0822.0,5.00,0.00,21.6,20.1,00.0,30.7,23.3,11.1,0000.0,0002.44,0001.02,0000.81
2022-12-07 00:01:00,,0821.9,4.99,0.00,21.6,20.1,00.0,30.7,23.3,11.1,0000.0,0002.32,0001.01,0000.82
2022-12-07 00:02:00,,0821.9,4.99,0.00,21.6,20.1,00.0,30.7,23.2,11.1,0000.0,0002.32,0001.01,0000.82
2022-12-07 00:03:00,,0822.0,5.00,0.00,21.6,20.1,00.0,30.7,23.1,11.0,0000.0,0002.36,0001.02,0000.83
2022-12-07 00:04:00,,0821.9,4.99,0.00,21.6,20.0,00.0,30.7,23.1,11.1,0000.0,0002.14,0001.04,0000.84
2022-12-07 00:05:00,,0821.9,4.99,0.00,21.6,20.0,00.0,30.7,23.2,11.1,0000.0,0001.79,0001.05,0000.84
2022-12-07 00:06:00,,0821.9,5.01,0.00,21.6,20.0,00.0,30.6,23.1,11.1,0000.0,0001.85,0001.07,0000.84
2022-12-07 00:07:00,,0822.0,5.01,0.00,21.5,20.0,00.0,30.6,23.2,11.1,0000.0,0001.85,0001.07,0000.83
2022-12-07 00:08:00,,0822.0,5.01,0.00,21.5,20.0,00.0,30.6,23.2,11.1,0000.0,0001.79,0001.04,0000.82
2022-12-07 00:09:00,,0821.9,5.00,0.00,21.5,20.0,00.0,30.6,23.2,11.1,0000.0,0001.76,0001.03,0000.80
2022-12-07 00:10:00,,0821.9,4.99,0.00,21.5,20.0,00.0,30.6,23.2,11.0,0000.0,0001.80,0001.03,0000.79
2022-12-07 00:11:00,,0822.0,4.99,0.00,21.5,20.0,00.0,30.6,23.2,11.0,0000.0,0001.95,0001.08,0000.79
2022-12-07 00:12:00,,0822.0,5.00,0.00,21.5,20.0,00.0,30.5,23.2,11.1,0000.0,0002.66,0001.08,0000.78
2022-12-07 00:13:00,,0822.0,5.00,0.00,21.5,20.0,00.0,30.5,23.2,11.0,0000.0,0003.64,0001.05,0000.77
2022-12-07 00:14:00,,0822.0,5.01,0.00,21.5,19.9,00.0,30.5,23.0,11.0,0000.0,0003.52,0001.04,0000.75
2022-12-07 00:15:00,,0821.9,5.00,0.00,21.4,19.9,00.0,30.5,22.9,11.0,0000.0,0003.48,0001.01,0000.73
2022-12-07 00:16:00,,0822.0,5.00,0.00,21.4,19.9,00.0,30.5,23.0,11.1,0000.0,0003.35,0000.99,0000.72
2022-12-07 00:17:00,,0822.0,5.01,0.00,21.5,20.5,00.0,30.4,23.3,11.1,0000.0,0003.26,0000.96,0000.72
2022-12-07 00:18:00,,0822.0,5.00,0.00,21.6,21.5,00.0,30.4,23.6,11.0,0000.0,0003.27,0000.95,0000.71
2022-12-07 00:19:00,,0822.1,4.99,0.00,21.7,21.7,00.0,30.5,23.8,11.0,0000.0,0003.38,0000.96,0000.71
2022-12-07 00:20:00,,0822.1,4.99,0.00,21.8,21.5,00.0,30.5,23.8,11.0,0000.0,0003.47,0000.98,0000.71
2022-12-07 00:21:00,,0822.1,5.00,0.00,21.8,21.3,00.0,30.6,23.7,11.0,0000.0,0003.49,0001.01,0000.72
2022-12-07 00:22:00,,0822.0,5.00,0.00,21.8,21.1,00.0,30.6,23.7,11.0,0000.0,0003.44,0000.99,0000.73
2022-12-07 00:23:00,,0822.1,5.00,0.00,21.8,20.9,00.0,30.6,23.7,11.0,0000.0,0003.00,0001.00,0000.73
2022-12-07 00:24:00,,0822.1,5.00,0.00,21.8,20.8,00.0,30.6,23.6,11.0,0000.0,0001.64,0001.02,0000.75
2022-12-07 00:25:00,,0822.1,5.00,0.00,21.8,20.7,00.0,30.6,23.6,11.0,0000.0,0001.69,0001.03,0000.76
2022-12-07 00:26:00,,0822.1,5.00,0.00,21.8,20.6,00.0,30.7,23.6,11.0,0000.0,0001.78,0001.06,0000.77
2022-12-07 00:27:00,,0822.1,5.00,0.00,21.7,20.5,00.0,30.6,23.5,11.0,0000.0,0001.92,0001.12,0000.78
2022-12-07 00:28:00,,0822.1,5.00,0.00,21.7,20.4,00.0,30.6,23.4,11.0,0000.0,0001.96,0001.13,0000.77
2022-12-07 00:29:00,,0822.1,5.00,0.00,21.7,20.4,00.0,30.6,23.4,11.0,0000.0,0001.93,0001.12,0000.77
2022-12-07 00:30:00,,0822.1,5.00,0.00,21.7,20.3,00.0,30.7,23.4,10.9,0000.0,0001.79,0001.08,0000.77
2022-12-07 00:31:00,,0822.1,5.00,0.00,21.7,20.2,00.0,30.6,23.4,11.0,0000.0,0001.79,0001.08,0000.76
2022-12-07 00:32:00,,0822.1,5.00,0.00,21.7,20.2,00.0,30.6,23.3,11.0,0000.0,0001.91,0001.08,0000.75
2022-12-07 00:33:00,,0822.1,5.00,0.00,21.6,20.2,00.0,30.6,23.4,11.0,0000.0,0001.84,0001.05,0000.73
2022-12-07 00:34:00,,0822.1,5.00,0.00,21.6,20.2,00.0,30.6,23.4,11.1,0000.0,0001.82,0001.03,0000.72
2022-12-07 00:35:00,,0822.1,5.00,0.00,21.6,20.2,00.0,30.6,23.4,11.2,0000.0,0001.81,0001.02,0000.72
2022-12-07 00:36:00,,0822.1,5.00,0.00,21.6,20.2,00.0,30.6,23.3,11.1,0000.0,0001.97,0001.04,0000.71
2022-12-07 00:37:00,,0822.1,5.00,0.00,21.6,20.1,00.0,30.6,23.3,11.0,0000.0,0001.98,0001.05,0000.71
2022-12-07 00:38:00,,0822.1,5.00,0.00,21.6,20.1,00.0,30.6,23.3,11.1,0000.0,0001.84,0000.99,0000.69
2022-12-07 00:39:00,,0822.1,5.00,0.00,21.6,20.1,00.0,30.6,23.3,11.1,0000.0,0001.81,0000.97,0000.68
2022-12-07 00:40:00,,0822.1,5.00,0.00,21.6,20.1,00.0,30.6,23.3,11.0,0000.0,0001.88,0001.00,0000.68
2022-12-07 00:41:00,,0822.1,5.00,0.00,21.6,20.1,00.0,30.6,23.3,11.1,0000.0,0001.96,0001.04,0000.67
2022-12-07 00:42:00,,0822.1,5.02,0.00,21.6,20.5,00.0,30.5,23.5,11.1,0000.0,0002.05,0001.09,0000.68
2022-12-07 00:43:00,,0822.1,5.01,0.00,21.7,21.5,00.0,30.5,23.7,11.0,0000.0,0001.93,0001.08,0000.68
2022-12-07 00:44:00,,0822.2,4.98,0.00,21.8,21.8,00.0,30.5,23.9,11.0,0000.0,0001.86,0001.06,0000.68
2022-12-07 00:45:00,,0822.2,5.00,0.00,21.8,21.6,00.0,30.6,23.9,10.9,0000.0,0002.10,0001.08,0000.69
2022-12-07 00:46:00,,0822.2,5.00,0.00,21.8,21.3,00.0,30.7,23.8,10.9,0000.0,0002.13,0001.07,0000.68
2022-12-07 00:47:00,,0822.2,5.00,0.00,21.8,21.1,00.0,30.7,23.7,10.9,0000.0,0002.04,0001.05,0000.67
2022-12-07 00:48:00,,0822.2,5.00,0.00,21.8,20.9,00.0,30.7,23.7,10.9,0000.0,0001.93,0001.02,0000.66
2022-12-07 00:49:00,,0822.2,5.01,0.00,21.8,20.8,00.0,30.7,23.6,10.9,0000.0,0001.99,0001.03,0000.65
2022-12-07 00:50:00,,0822.3,5.00,0.00,21.8,20.7,00.0,30.7,23.6,10.9,0000.0,0002.07,0001.06,0000.66
2022-12-07 00:51:00,,0822.3,5.00,0.00,21.8,20.6,00.0,30.7,23.6,10.9,0000.0,0004.18,0001.41,0000.67
2022-12-07 00:52:00,,0822.3,5.00,0.00,21.8,20.6,00.0,30.7,23.5,11.0,0000.0,0005.79,0001.62,0000.68
2022-12-07 00:53:00,,0822.3,5.00,0.00,21.8,20.5,00.0,30.7,23.6,11.0,0000.0,0005.68,0001.58,0000.68
2022-12-07 00:54:00,,0822.3,5.00,0.00,21.8,20.5,00.0,30.7,23.6,11.0,0000.0,0005.61,0001.53,0000.67
2022-12-07 00:55:00,,0822.3,5.00,0.00,21.8,20.4,00.0,30.7,23.5,11.0,0000.0,0005.72,0001.55,0000.66
2022-12-07 00:56:00,,0822.4,5.01,0.00,21.8,20.4,00.0,30.7,23.5,11.0,0000.0,0005.43,0001.51,0000.66
2022-12-07 00:57:00,,0822.3,5.01,0.00,21.8,20.4,00.0,30.7,23.5,10.9,0000.0,0005.38,0001.49,0000.65
2022-12-07 00:58:00,,0822.3,5.00,0.00,21.7,20.3,00.0,30.7,23.5,10.9,0000.0,0005.54,0001.54,0000.66
2022-12-07 00:59:00,,0822.4,5.00,0.00,21.7,20.3,00.0,30.7,23.5,11.0,0000.0,0005.66,0001.59,0000.67
